Weather in Manas

Russia / Republic of Dagestan     42°43′27″N   47°40′54″E
temp.,
°C
wind,
m/s
gust,
m/s
humid.,
%
clouds,
%
prec.,
mm/h
press.,
hPa
HPBL,
m
2 july, sat
sat200:00+22s225758 0.0 101028
03:00+22ese226012 0.0 100820
06:00+24s115896 0.0 100833
09:00+23nne2260100 0.3 1008185
12:00+25nnw81251100 0.1 1009666
15:00+23nnw6956100 0.1 1010511
18:00+22nne1166100 0.1 101041
21:00+22wsw2267100 0.1 101256
3 july, sun
sun300:00+22nw4758100 0.0 1011307
03:00+20nw811541 0.0 1010526
06:00+21wnw712510 0.0 1011769
09:00+25nw1214390 0.0 10111233
12:00+26nw1315360 0.0 10111155
15:00+28nw1114363 0.0 10101116
18:00+22ese346314 0.0 1012340
21:00+21se337314 0.0 101389
4 july, mon
mon400:00+22wsw34583 0.0 101362
03:00+21w33520 0.0 101260
06:00+23w48493 0.0 1013325
09:00+26nw912402 0.0 10131173
12:00+26nne68465 0.0 10131247
15:00+25e445229 0.0 1013413
18:00+23ese445821 0.0 1013251
21:00+22s45614 0.0 101493
5 july, tue
tue500:00+22s22572 0.0 101233
03:00+22wsw44500 0.0 101234
06:00+24w34490 0.0 101369
09:00+27nnw68450 0.0 1013847
12:00+28n8104828 0.0 10121339
15:00+23e337011 0.0 1015691
18:00+23se33662 0.0 1015290
21:00+22s347472 0.0 1016100
6 july, wed
wed600:00+21ssw22753 0.0 101515
03:00+21sw22720 0.0 101516
06:00+23wsw22623 0.0 101644
09:00+25ene43510 0.0 1016613
12:00+24ne55600 0.0 1017641
15:00+24e76630 0.0 1017725
18:00+22e65650 0.0 1018663
21:00+21ese34630 0.0 1019357